This is the latest recevied weather packets stored in our database for station/object KR4CWL-13. If no packets are shown the sender has not sent any weather packets the latest 10 day(s).
| Time | Temp. | Humidity | Pressure | Rain* | Wind** | Luminosity | Snow |
|---|---|---|---|---|---|---|---|
| 1777745038 | 14.44° C | 59% | 1005.1 hPa | 0 mm | - | - | - |
| 1777744438 | 14.44° C | 60% | 1005.1 hPa | 0 mm | - | - | - |
| 1777743838 | 14.44° C | 61% | 1005.1 hPa | 0 mm | - | - | - |
| 1777743238 | 13.89° C | 63% | 1005.1 hPa | 0 mm | - | - | - |
| 1777742638 | 13.89° C | 64% | 1005.1 hPa | 0 mm | - | - | - |
| 1777742038 | 13.89° C | 63% | 1005.1 hPa | 0 mm | - | - | - |
| 1777741438 | 13.89° C | 64% | 1005.1 hPa | 0 mm | - | - | - |
| 1777740838 | 13.33° C | 66% | 1005.1 hPa | 0 mm | - | - | - |
| 1777740238 | 13.33° C | 67% | 1005.4 hPa | 0 mm | - | - | - |
| 1777739638 | 13.33° C | 69% | 1005.8 hPa | 0 mm | - | - | - |
| 1777739037 | 13.33° C | 68% | 1005.8 hPa | 0 mm | - | - | - |
| 1777738438 | 13.89° C | 72% | 1005.8 hPa | 0 mm | - | - | - |
| 1777737837 | 13.33° C | 73% | 1005.8 hPa | 0 mm | - | - | - |
| 1777737237 | 12.78° C | 77% | 1006.4 hPa | 0 mm | - | - | - |
| 1777736637 | 12.22° C | 77% | 1006.8 hPa | 0 mm | - | - | - |
| 1777736037 | 12.22° C | 82% | 1006.4 hPa | 0 mm | - | - | - |
| 1777735437 | 11.67° C | 84% | 1006.8 hPa | 0 mm | - | - | - |
| 1777734837 | 11.67° C | 85% | 1006.8 hPa | 0 mm | - | - | - |
| 1777734237 | 11.67° C | 85% | 1006.1 hPa | 0 mm | - | - | - |
| 1777733637 | 11.11° C | 88% | 1006.1 hPa | 0 mm | - | - | - |
| 1777733037 | 11.11° C | 90% | 1006.4 hPa | 0 mm | - | - | - |
| 1777732437 | 11.11° C | 88% | 1006.8 hPa | 0 mm | - | - | - |
| 1777731837 | 11.11° C | 90% | 1006.8 hPa | 0 mm | - | - | - |
| 1777731237 | 10.56° C | 94% | 1006.8 hPa | 0 mm | - | - | - |
| 1777730637 | 10.56° C | 93% | 1006.4 hPa | 0 mm | - | - | - |
* Rain since midnight (hover to see other rain measurements)
** Current wind speed in m/s (hover to see current wind gust speed)